Time,TemperatureF,DewpointF,PressureIn,WindDirection,WindDirectionDegrees,WindSpeedMPH,WindSpeedGustMPH,Humidity,HourlyPrecipIn,Conditions,Clouds,dailyrainin,SoftwareType,DateUTC
2013-07-08 00:01:00,77.0,70.0,29.97,North,0,0.0,0.0,80,0.00,,,0.00,,2013-07-08 05:01:00,
2013-07-08 00:11:00,77.0,70.0,29.97,North,0,0.0,0.0,80,0.00,,,0.00,,2013-07-08 05:11:00,
2013-07-08 00:22:00,76.0,70.0,29.97,North,0,0.0,0.0,82,0.00,,,0.00,,2013-07-08 05:22:00,
2013-07-08 00:33:00,76.0,70.0,29.97,North,0,0.0,0.0,82,0.00,,,0.00,,2013-07-08 05:33:00,
2013-07-08 00:43:00,76.0,70.0,29.97,North,0,0.0,0.0,82,0.00,,,0.00,,2013-07-08 05:43:00,
2013-07-08 00:53:00,76.0,70.0,29.97,North,0,0.0,0.0,82,0.00,,,0.00,,2013-07-08 05:53:00,
2013-07-08 01:01:00,76.0,70.0,29.97,North,0,0.0,0.0,82,0.00,,,0.00,,2013-07-08 06:01:00,
2013-07-08 01:11:00,76.0,70.0,29.97,North,0,0.0,0.0,82,0.00,,,0.00,,2013-07-08 06:11:00,
2013-07-08 01:22:00,76.0,70.0,29.97,North,0,0.0,0.0,82,0.00,,,0.00,,2013-07-08 06:22:00,
2013-07-08 01:33:00,76.0,70.0,29.97,North,0,0.0,0.0,82,0.00,,,0.00,,2013-07-08 06:33:00,
2013-07-08 01:43:00,76.0,70.0,29.97,North,0,0.0,0.0,82,0.00,,,0.00,,2013-07-08 06:43:00,
2013-07-08 01:53:00,76.0,70.0,29.97,North,0,0.0,0.0,82,0.00,,,0.00,,2013-07-08 06:53:00,
2013-07-08 02:02:00,76.0,70.0,29.97,North,0,0.0,0.0,82,0.00,,,0.00,,2013-07-08 07:02:00,
2013-07-08 02:12:00,76.0,70.0,29.96,North,0,0.0,0.0,83,0.00,,,0.00,,2013-07-08 07:12:00,
2013-07-08 02:22:00,76.0,70.0,29.96,North,0,0.0,0.0,83,0.00,,,0.00,,2013-07-08 07:22:00,
2013-07-08 02:34:00,76.0,70.0,29.96,North,0,0.0,0.0,83,0.00,,,0.00,,2013-07-08 07:34:00,
2013-07-08 02:44:00,76.0,70.0,29.96,North,0,0.0,0.0,83,0.00,,,0.00,,2013-07-08 07:44:00,
2013-07-08 02:52:00,75.0,70.0,29.97,North,0,0.0,0.0,84,0.00,,,0.00,,2013-07-08 07:52:00,
2013-07-08 03:02:00,75.0,70.0,29.97,North,0,0.0,0.0,84,0.00,,,0.00,,2013-07-08 08:02:00,
2013-07-08 03:12:00,75.0,70.0,29.97,North,0,0.0,0.0,84,0.00,,,0.00,,2013-07-08 08:12:00,
2013-07-08 03:22:00,75.0,70.0,29.97,North,0,0.0,0.0,85,0.00,,,0.00,,2013-07-08 08:22:00,
2013-07-08 03:33:00,75.0,70.0,29.98,North,0,0.0,0.0,85,0.00,,,0.00,,2013-07-08 08:33:00,
2013-07-08 03:42:00,75.0,70.0,29.98,North,0,0.0,0.0,85,0.00,,,0.00,,2013-07-08 08:42:00,
2013-07-08 03:53:00,75.0,70.0,29.98,North,0,0.0,0.0,85,0.00,,,0.00,,2013-07-08 08:53:00,
2013-07-08 04:01:00,74.0,69.0,29.99,North,0,0.0,0.0,85,0.00,,,0.00,,2013-07-08 09:01:00,
2013-07-08 04:11:00,74.0,69.0,29.99,North,0,0.0,0.0,85,0.00,,,0.00,,2013-07-08 09:11:00,
2013-07-08 04:22:00,74.0,69.0,29.99,North,0,0.0,0.0,85,0.00,,,0.00,,2013-07-08 09:22:00,
2013-07-08 04:34:00,74.0,70.0,30.00,North,0,0.0,0.0,86,0.00,,,0.00,,2013-07-08 09:34:00,
2013-07-08 04:43:00,74.0,70.0,30.00,North,0,0.0,0.0,86,0.00,,,0.00,,2013-07-08 09:43:00,
2013-07-08 04:53:00,74.0,70.0,30.00,North,0,0.0,0.0,86,0.00,,,0.00,,2013-07-08 09:53:00,
2013-07-08 05:02:00,74.0,70.0,30.00,North,0,0.0,0.0,86,0.00,,,0.00,,2013-07-08 10:02:00,
2013-07-08 05:34:00,74.0,69.0,30.01,North,0,0.0,0.0,85,0.00,,,0.00,,2013-07-08 10:34:00,
2013-07-08 05:43:00,74.0,69.0,30.01,North,0,0.0,0.0,85,0.00,,,0.00,,2013-07-08 10:43:00,
2013-07-08 05:53:00,74.0,69.0,30.01,North,0,0.0,0.0,85,0.00,,,0.00,,2013-07-08 10:53:00,
2013-07-08 06:02:00,74.0,69.0,30.02,North,0,0.0,0.0,85,0.00,,,0.00,,2013-07-08 11:02:00,
2013-07-08 06:11:00,74.0,69.0,30.02,North,0,0.0,0.0,85,0.00,,,0.00,,2013-07-08 11:11:00,
2013-07-08 06:22:00,74.0,69.0,30.02,North,0,0.0,0.0,85,0.00,,,0.00,,2013-07-08 11:22:00,
2013-07-08 06:33:00,74.0,70.0,30.03,North,0,0.0,0.0,86,0.00,,,0.00,,2013-07-08 11:33:00,
2013-07-08 06:43:00,74.0,69.0,30.02,North,0,0.0,0.0,85,0.00,,,0.00,,2013-07-08 11:43:00,
2013-07-08 06:53:00,74.0,69.0,30.02,North,0,0.0,0.0,85,0.00,,,0.00,,2013-07-08 11:53:00,
2013-07-08 07:01:00,74.0,70.0,30.03,North,0,0.0,0.0,86,0.00,,,0.00,,2013-07-08 12:01:00,
2013-07-08 07:11:00,74.0,70.0,30.03,North,0,0.0,0.0,87,0.00,,,0.00,,2013-07-08 12:11:00,
2013-07-08 07:22:00,73.0,69.0,30.03,North,0,0.0,0.0,87,0.00,,,0.00,,2013-07-08 12:22:00,
2013-07-08 07:33:00,73.0,69.0,30.03,North,0,0.0,0.0,87,0.00,,,0.00,,2013-07-08 12:33:00,
2013-07-08 07:53:00,73.0,69.0,30.03,North,0,0.0,0.0,88,0.00,,,0.00,,2013-07-08 12:53:00,
2013-07-08 08:01:00,73.0,69.0,30.03,North,0,0.0,0.0,88,0.00,,,0.00,,2013-07-08 13:01:00,
2013-07-08 08:11:00,75.0,71.0,30.04,North,0,0.0,0.0,86,0.00,,,0.00,,2013-07-08 13:11:00,
2013-07-08 08:22:00,76.0,71.0,30.05,North,0,0.0,0.0,84,0.00,,,0.00,,2013-07-08 13:22:00,
2013-07-08 08:33:00,77.0,71.0,30.05,North,0,0.0,0.0,83,0.00,,,0.00,,2013-07-08 13:33:00,
2013-07-08 08:42:00,77.0,71.0,30.05,North,0,0.0,0.0,82,0.00,,,0.00,,2013-07-08 13:42:00,
2013-07-08 08:53:00,77.0,71.0,30.06,North,0,0.0,0.0,81,0.00,,,0.00,,2013-07-08 13:53:00,
2013-07-08 09:02:00,77.0,71.0,30.06,North,0,0.0,0.0,81,0.00,,,0.00,,2013-07-08 14:02:00,
2013-07-08 09:12:00,77.0,71.0,30.06,North,0,0.0,0.0,81,0.00,,,0.00,,2013-07-08 14:12:00,
2013-07-08 09:34:00,77.0,71.0,30.06,North,0,0.0,0.0,81,0.00,,,0.00,,2013-07-08 14:34:00,
2013-07-08 10:02:00,80.0,72.0,30.07,North,0,0.0,0.0,77,0.00,,,0.00,,2013-07-08 15:02:00,
2013-07-08 10:11:00,80.0,71.0,30.07,North,0,0.0,0.0,75,0.00,,,0.00,,2013-07-08 15:11:00,
2013-07-08 10:22:00,80.0,71.0,30.08,North,0,0.0,0.0,75,0.00,,,0.00,,2013-07-08 15:22:00,
2013-07-08 10:33:00,80.0,71.0,30.08,North,0,0.0,0.0,75,0.00,,,0.00,,2013-07-08 15:33:00,
2013-07-08 10:43:00,80.0,71.0,30.08,North,0,0.0,0.0,75,0.00,,,0.00,,2013-07-08 15:43:00,
2013-07-08 10:53:00,80.0,71.0,30.08,North,0,0.0,0.0,75,0.00,,,0.00,,2013-07-08 15:53:00,
2013-07-08 11:01:00,82.0,72.0,30.08,North,0,0.0,0.0,73,0.00,,,0.00,,2013-07-08 16:01:00,
2013-07-08 11:11:00,82.0,72.0,30.08,North,0,0.0,0.0,72,0.00,,,0.00,,2013-07-08 16:11:00,
2013-07-08 11:22:00,82.0,72.0,30.08,North,0,0.0,0.0,72,0.00,,,0.00,,2013-07-08 16:22:00,
2013-07-08 11:33:00,83.0,74.0,30.09,North,0,0.0,0.0,74,0.00,,,0.00,,2013-07-08 16:33:00,
2013-07-08 11:43:00,83.0,74.0,30.09,North,0,0.0,0.0,74,0.00,,,0.00,,2013-07-08 16:43:00,
2013-07-08 11:53:00,83.0,74.0,30.09,North,0,0.0,0.0,74,0.00,,,0.00,,2013-07-08 16:53:00,
2013-07-08 12:06:00,83.0,74.0,30.09,North,0,0.0,0.0,74,0.00,,,0.00,,2013-07-08 17:06:00,
2013-07-08 12:13:00,85.0,72.0,30.08,North,0,0.0,0.0,65,0.00,,,0.00,,2013-07-08 17:13:00,
2013-07-08 12:27:00,85.0,71.0,30.08,North,0,0.0,0.0,63,0.00,,,0.00,,2013-07-08 17:27:00,
2013-07-08 12:37:00,87.0,72.0,30.07,North,0,0.0,0.0,61,0.00,,,0.00,,2013-07-08 17:37:00,
2013-07-08 12:45:00,87.0,72.0,30.07,North,0,0.0,0.0,61,0.00,,,0.00,,2013-07-08 17:45:00,
2013-07-08 12:54:00,87.0,71.0,30.07,North,0,0.0,0.0,59,0.00,,,0.00,,2013-07-08 17:54:00,
2013-07-08 13:04:00,84.0,70.0,30.08,North,0,0.0,0.0,62,0.00,,,0.00,,2013-07-08 18:04:00,
2013-07-08 13:55:00,84.0,73.0,30.07,North,0,0.0,0.0,69,0.00,,,0.00,,2013-07-08 18:55:00,
2013-07-08 14:10:00,84.0,73.0,30.07,North,0,0.0,0.0,69,0.00,,,0.00,,2013-07-08 19:10:00,
2013-07-08 16:09:00,88.0,66.0,30.06,North,0,0.0,0.0,49,0.00,,,0.00,,2013-07-08 21:09:00,
2013-07-08 16:46:00,86.0,68.0,30.05,North,0,0.0,0.0,56,0.00,,,0.00,,2013-07-08 21:46:00,
2013-07-08 16:56:00,87.0,69.0,30.04,North,0,0.0,0.0,55,0.00,,,0.00,,2013-07-08 21:56:00,
2013-07-08 17:10:00,88.0,69.0,30.04,North,0,0.0,0.0,54,0.00,,,0.00,,2013-07-08 22:10:00,
2013-07-08 17:50:00,89.0,68.0,30.03,North,0,0.0,0.0,51,0.00,,,0.00,,2013-07-08 22:50:00,
2013-07-08 18:08:00,89.0,70.0,30.03,North,0,0.0,0.0,53,0.00,,,0.00,,2013-07-08 23:08:00,
2013-07-08 18:17:00,89.0,71.0,30.03,North,0,0.0,0.0,55,0.00,,,0.00,,2013-07-08 23:17:00,
2013-07-08 18:27:00,89.0,71.0,30.03,North,0,0.0,0.0,55,0.00,,,0.00,,2013-07-08 23:27:00,
2013-07-08 18:39:00,89.0,71.0,30.03,North,0,0.0,0.0,55,0.00,,,0.00,,2013-07-08 23:39:00,
2013-07-08 18:49:00,89.0,71.0,30.03,North,0,0.0,0.0,55,0.00,,,0.00,,2013-07-08 23:49:00,
2013-07-08 19:12:00,87.0,70.0,30.02,North,0,0.0,0.0,58,0.00,,,0.00,,2013-07-09 00:12:00,
2013-07-08 19:30:00,87.0,71.0,30.02,North,0,0.0,0.0,59,0.00,,,0.00,,2013-07-09 00:30:00,
2013-07-08 19:40:00,86.0,69.0,30.02,North,0,0.0,0.0,58,0.00,,,0.00,,2013-07-09 00:40:00,
2013-07-08 19:48:00,86.0,69.0,30.02,North,0,0.0,0.0,58,0.00,,,0.00,,2013-07-09 00:48:00,
2013-07-08 21:28:00,82.0,69.0,30.03,North,0,0.0,0.0,64,0.00,,,0.00,,2013-07-09 02:28:00,
2013-07-08 21:50:00,81.0,69.0,30.03,North,0,0.0,0.0,66,0.00,,,0.00,,2013-07-09 02:50:00,
2013-07-08 21:58:00,80.0,69.0,30.06,North,0,0.0,0.0,70,0.00,,,0.00,,2013-07-09 02:58:00,
2013-07-08 22:07:00,80.0,68.0,30.05,North,0,0.0,0.0,68,0.00,,,0.00,,2013-07-09 03:07:00,
2013-07-08 22:30:00,80.0,69.0,30.06,North,0,0.0,0.0,70,0.00,,,0.00,,2013-07-09 03:30:00,
2013-07-08 23:11:00,76.0,69.0,30.09,North,0,0.0,0.0,78,0.00,,,0.00,,2013-07-09 04:11:00,
2013-07-08 23:34:00,76.0,69.0,30.09,North,0,0.0,0.0,78,0.00,,,0.00,,2013-07-09 04:34:00,
2013-07-08 23:43:00,76.0,69.0,30.09,North,0,0.0,0.0,78,0.00,,,0.00,,2013-07-09 04:43:00,
2013-07-08 23:53:00,76.0,69.0,30.09,North,0,0.0,0.0,78,0.00,,,0.00,,2013-07-09 04:53:00,